カタログに戻る

THORAD AGENA D DEB

運用中SSO
NORAD 39592·DEBRIS·🇺🇸 United States

打ち上げ Apr 8, 1970 から Vandenberg Space Force Base

Loading…

次のパス (今後24時間)

TLE

最新Source: Space-Track

元期: Sep 12, 2026, 00:43 UTC

1 39592U 70025QT  26255.03054939  .00000628  00000-0  92427-3 0  9998
2 39592 100.1333 279.3566 0003355 166.7626 193.3600 13.58696530620948

AllMySatでTHORAD AGENA D DEBをリアルタイム追跡

Download on the App Store